History for Miami, FL

Monday, December 3, 2012 — View Current Conditions

Jump to Data:

Date:
Airport Code:
Recently Viewed Airport Codes: KMIA
Daily Summary
  Actual Average Record
Temperature
Mean Temperature 74°F 72°F  
Max Temperature 80°F 79°F 89°F (1902)
Min Temperature 68°F 65°F 37°F (1910)
Degree Days
Heating Degree Days 0 0  
Month to date heating degree days 0 0  
Since 1 July heating degree days 1 3  
Cooling Degree Days 9 8  
Month to date cooling degree days 30 24  
Year to date cooling degree days 4470 4396  
Growing Degree Days 24 (Base 50)    
Moisture
Dew Point 59°F    
Average Humidity 61    
Maximum Humidity 78    
Minimum Humidity 44    
Precipitation
Precipitation 0.06 in 0.07 in 0.75 in (1972)
Month to date precipitation 0.13 0.22  
Year to date precipitation 86.56 60.08  
Snow
Snow 0.00 in in in ()
Month to date snowfall 0.0  
Since 1 July snowfall 0.0  
Snow Depth 0.00 in    
Sea Level Pressure
Sea Level Pressure 30.19 in    
Wind
Wind Speed 9 mph (ENE)    
Max Wind Speed 23 mph    
Max Gust Speed 29 mph    
Visibility 10 miles    
Events Rain    
T = Trace of Precipitation, MM = Missing Value Source: NWS Daily Summary

Show full METARS

(help) - Comma Delimited File

Hourly Observations

Time(EST) Temperature Dew Point Humidity Sea Level Pressure Visibility Wind Direction Wind Speed Gust Speed Precipitation Events Conditions
12:53 AM 73.0°F 61.0°F 66% 30.19 in 10.0 miles East 11.5 mph - N/A   Scattered Clouds
1:53 AM 71.1°F 60.1°F 68% 30.18 in 10.0 miles East 9.2 mph - N/A   Scattered Clouds
2:53 AM 70.0°F 60.1°F 71% 30.17 in 10.0 miles East 8.1 mph - N/A   Clear
3:53 AM 72.0°F 61.0°F 68% 30.16 in 10.0 miles NE 3.5 mph - N/A   Partly Cloudy
4:53 AM 70.0°F 62.1°F 76% 30.16 in 10.0 miles East 9.2 mph - N/A   Scattered Clouds
5:53 AM 72.0°F 61.0°F 68% 30.18 in 10.0 miles ENE 5.8 mph - N/A   Partly Cloudy
6:53 AM 69.8°F 62.6°F 78% 30.19 in 10.0 miles NNE 4.6 mph - N/A   Mostly Cloudy
7:53 AM 73.0°F 64.9°F 76% 30.21 in 10.0 miles ENE 4.6 mph - 0.02 in   Mostly Cloudy
8:53 AM 75.0°F 63.0°F 66% 30.23 in 10.0 miles East 17.3 mph - N/A   Mostly Cloudy
9:53 AM 73.9°F 63.0°F 68% 30.24 in 9.0 miles ENE 12.7 mph 20.7 mph 0.02 in Rain Light Rain
10:53 AM 77.0°F 62.1°F 60% 30.22 in 10.0 miles ENE 12.7 mph 24.2 mph 0.00 in   Scattered Clouds
11:53 AM 75.0°F 64.0°F 69% 30.21 in 10.0 miles NE 10.4 mph 21.9 mph 0.00 in   Mostly Cloudy
12:53 PM 78.1°F 61.0°F 56% 30.19 in 10.0 miles ENE 12.7 mph - 0.00 in   Scattered Clouds
1:53 PM 79.0°F 62.1°F 56% 30.17 in 10.0 miles ENE 15.0 mph 25.3 mph N/A   Mostly Cloudy
2:53 PM 78.1°F 60.1°F 54% 30.16 in 10.0 miles ENE 15.0 mph 19.6 mph N/A   Scattered Clouds
3:53 PM 75.0°F 57.9°F 55% 30.17 in 10.0 miles NE 11.5 mph - N/A   Mostly Cloudy
4:53 PM 75.0°F 55.9°F 51% 30.17 in 10.0 miles NE 8.1 mph - N/A   Scattered Clouds
5:53 PM 73.0°F 55.0°F 53% 30.19 in 10.0 miles NNE 5.8 mph - N/A   Partly Cloudy
6:53 PM 72.0°F 55.0°F 55% 30.20 in 10.0 miles NNE 5.8 mph - N/A   Mostly Cloudy
7:53 PM 72.0°F 54.0°F 53% 30.21 in 10.0 miles North 4.6 mph - N/A   Scattered Clouds
8:53 PM 73.0°F 50.0°F 44% 30.21 in 10.0 miles ENE 6.9 mph - N/A   Scattered Clouds
9:53 PM 69.1°F 51.1°F 53% 30.21 in 10.0 miles East 8.1 mph - N/A   Scattered Clouds
10:53 PM 72.0°F 52.0°F 49% 30.21 in 10.0 miles East 10.4 mph - N/A   Scattered Clouds
11:53 PM 71.1°F 48.0°F 44% 30.20 in 10.0 miles East 10.4 mph - N/A   Partly Cloudy